Location: ??
(34.7707°N, 135.6540°E)
Time: 21:55:48
(UTC+00:00)

USA 267 - Pass Details

Date: 09 April 2020
Orbit: 1101 x 1107 km, 123.0° (Epoch: 05 April)

Event Time Altitude Azimuth Distance (km) Brightness Sun altitude
Rises 17:12:49 0° 46° (NE) 3,919 7.1 -36.8°
Reaches altitude 10° 17:15:21 10° 49° (NE) 2,959 6.3 -36.5°
Enters shadow 17:20:41 55° 85° (E) 1,297 3.7 -35.7°
